Regional Weather Roundup
Issued by NWS

Home | Current Version | Previous Version | Graphics & Text | Print | Product List | Glossary Off
Versions: 1 2 3 4 5 6 7 8 9 10 11 12 13 14 15 16 17 18 19 20 21 22 23 24 25 26 27 28 29 30 31 32 33 34 35 36 37 38 39 40 41 42 43 44 45 46 47 48 49 50

000
ASUS43 KMKX 291621
RWRWI

WISCONSIN REGIONAL WEATHER ROUNDUP
NATIONAL WEATHER SERVICE MILWAUKEE/SULLIVAN WI
1100 AM CDT WED MAR 29 2017

NOTE: "FAIR" INDICATES FEW OR NO CLOUDS BELOW 12,000 FEET WITH NO
SIGNIFICANT WEATHER AND/OR OBSTRUCTIONS TO VISIBILITY.

WIZ001-002-006>008-014>016-023>028-291700-
NORTHWEST WISCONSIN

CITY           SKY/WX    TMP DP  RH WIND       PRES   REMARKS
SUPERIOR ARPT  CLOUDY    36  32  86 NE15G21   30.34S WCI  27
ASHLAND        NOT AVBL
HAYWARD        CLOUDY    47  29  49 CALM      30.29R
SIREN          CLOUDY    42  31  63 CALM      30.28S
CUMBERLAND     CLOUDY    45  28  53 SE6       30.27S
RICE LAKE      CLOUDY    46  30  54 CALM      30.30R
CHETEK         CLOUDY    46  32  58 SE7       30.28S
LADYSMITH      CLOUDY    47  30  52 SE6       30.31R
EAU CLAIRE     CLOUDY    44  30  57 E7        30.27S
MENOMONIE      CLOUDY    45  32  59 E5        30.28R
NEW RICHMOND   CLOUDY    47  30  51 SE7       30.27R
OSCEOLA        CLOUDY    49  32  51 SE7       30.29S
$$

WIZ003>005-009-010-017-018-291700-
NORTH CENTRAL WISCONSIN

CITY           SKY/WX    TMP DP  RH WIND       PRES   REMARKS
MANITOWISH WTR MOSUNNY   43  26  51 E5        30.31R
ARBOR VITAE    CLOUDY    43  29  56 SE5       30.30S
WOODRUFF       CLOUDY    43  29  56 SE5       30.30S
RHINELANDER    CLOUDY    45  29  53 E8        30.31R
EAGLE RIVER    CLOUDY    43  27  52 SE7       30.32R
LAND O LAKES   CLOUDY    43  27  54 E7        30.34R
PHILLIPS       CLOUDY    46  29  53 SE6       30.29R
TOMAHAWK       CLOUDY    46  30  53 SE3       30.31R
MEDFORD        CLOUDY    40  29  64 E7        30.29R
MERRILL        CLOUDY    43  29  58 SE7       30.32R
$$

WIZ029-030-035-036-043>047-291700-
CENTRAL WISCONSIN

CITY           SKY/WX    TMP DP  RH WIND       PRES   REMARKS
WAUSAU         CLOUDY    43  27  53 SE12      30.29S
MOSINEE        PTSUNNY   43  28  56 E9        30.31R
MARSHFIELD     CLOUDY    43  30  60 E12       30.27F
STEVENS POINT  CLOUDY    41  28  59 E9        30.30F
WAUPACA        CLOUDY    44  32  63 NE7       30.33S
WAUTOMA        CLOUDY    43  32  65 E10       30.31S
WISC RAPIDS    CLOUDY    45  31  58 E10       30.30S
CAMP DOUGLAS   CLOUDY    43  36  75 E10       30.29S
$$

WIZ011>013-019>022-031-037>040-048>050-291700-
NORTHEAST WISCONSIN

CITY           SKY/WX    TMP DP  RH WIND       PRES   REMARKS
ANTIGO         CLOUDY    39  29  65 E8        30.32R WCI  34
SHAWANO        CLOUDY    41  32  71 NE8       30.35R
OCONTO         CLOUDY    39  31  73 E6        30.37R WCI  35
STURGEON BAY   MOSUNNY   39  33  79 NE8       30.35R WCI  33
GREEN BAY      CLOUDY    39  35  86 NE12      30.35R WCI  32
MANITOWOC      PTSUNNY   40  36  86 N6        30.34R
APPLETON       PTSUNNY   39  30  70 E10       30.31R WCI  32
CLINTONVILLE   CLOUDY    43  30  61 E8        30.34R
OSHKOSH        CLOUDY    42  35  76 NE6       30.31R
$$

WIZ032>034-041-042-053>061-291700-
SOUTHWEST WISCONSIN

CITY           SKY/WX    TMP DP  RH WIND       PRES   REMARKS
LA CROSSE      CLOUDY    44  34  67 E9        30.27R
SPARTA         CLOUDY    42  35  74 E7        30.30R
VIROQUA        CLOUDY    40  35  82 CALM      30.25S
BOSCOBEL       CLOUDY    43  37  79 NE7       30.24F
PRAIRIE DU CHI CLOUDY    45  34  65 E7        30.21F
PLATTEVILLE    CLOUDY    44  37  76 E15G24    30.19F
$$

WIZ056-057-062-063-064-067-068-291700-
SOUTH CENTRAL WISCONSIN

CITY           SKY/WX    TMP DP  RH WIND       PRES   REMARKS
REEDSBURG      CLOUDY    39  36  88 E3        30.28R
BARABOO/DELLS  CLOUDY    39  34  83 E7        30.28R WCI  34
LONE ROCK      CLOUDY    42  37  82 E6        30.25F HAZE
MINERAL POINT  CLOUDY    45  36  70 E14       30.22F
MADISON        CLOUDY    41  36  82 E7        30.27S
MIDDLETON      CLOUDY    41  38  90 NE3       30.27R
WATERTOWN      CLOUDY    44  38  79 E9        30.26F
MONROE         PTSUNNY   41  36  81 E10       30.24R
JANESVILLE     CLOUDY    45  41  87 E13       30.25F
$$

WIZ051-052-058>065-066-070>072-291700-
SOUTHEAST WISCONSIN

CITY           SKY/WX    TMP DP  RH WIND       PRES   REMARKS
MILWAUKEE      CLOUDY    43  37  79 NE8       30.30S
WAUKESHA       PTSUNNY  N/A N/A N/A NE9       30.29F
MILWAUKEE/TIMM SUNNY     45  36  70 NE7       30.31R
RACINE         PTSUNNY   40  36  86 NE9       30.31F WCI  34
KENOSHA        PTSUNNY   42  35  76 NE10      30.28S
FOND DU LAC    CLOUDY    46  37  71 E7        30.31R
SHEBOYGAN      CLOUDY    41  37  86 NE9       30.32R
WEST BEND      CLOUDY    43  43 100 E6        30.30F
JUNEAU         CLOUDY    43  38  84 NE7       30.29F
$$

LSZ147-162-291700-
LAKE SUPERIOR

STATION/POSITION TIME  TEMP    WIND        PRES    WAVE
                       AIR SEA DIR/SP/G            HT/PER
                 (UTC) (F)     (DEG/KT/KT) (MB)    (FT/S)
DEVILS ISLAND    1600   34      70/ 15/ 17 1028.9R
PORT WING        1530   35      30/ 13/ 15 1027.1S
SAXON HARBOR     1540   36     320/  1/  2 1026.8S
$$

LMZ867-665-643>646-291700-
LAKE MICHIGAN

STATION/POSITION TIME  TEMP    WIND        PRES    WAVE
                       AIR SEA DIR/SP/G            HT/PER
                 (UTC) (F)     (DEG/KT/KT) (MB)    (FT/S)
CHAMBERS ISLAND  1540   33      10/ 10/ 13 1028.1R
NORTHPORT PIER   1540   35      60/  6/  8 1028.4R
SISTER BAY       1506   41      90/  7/ 10   N/A
KEWAUNEE LAKESHO 1554   34      30/  9/ 14 1027.3R
SHEBOYGAN LAKESH 1600   37     360/  9/  9 1027.6R
PORT WASHINGTON  1530   41      40/  5/  7 1027.8R
MILWAUKEE LAKESH 1600   38      30/ 11/ 12   N/A
KENOSHA   LAKESH 1600   37      30/ 11/ 13 1025.7
$$

TC  - TEMPERATURE IN CELSIUS
VSB - VISIBILITY IN STATUTE MILES
WCI - WIND CHILL INDEX
HX  - HEAT INDEX





USA.gov is the U.S. government's official web portal to all federal, state and local government web resources and services.